When you browse on this site, cookies collect data to enhance your experience and personalize the content and advertising you see.
Visit our Privacy Policy to learn more. By continuing to use the site, you agree to this use of cookies and data.
  • en France
  • Liste des pays
  • À 7 jours
  • Température de l'eau
  • Carte météo
  • Widgets météo
  • user-avatar
    Se connecter

    Météo par heure à Felling

    Ce jour, 21 Août, Mercredi

    Heure Température Précipitation Vent Pression Humidité
    00:00 +11°C° 0 mm 3 m/s 760 mmHg 86%
    01:00 +11°C° 0 mm 3 m/s 760 mmHg 87%
    02:00 +12°C° 0 mm 2 m/s 760 mmHg 87%
    03:00 +12°C° 0 mm 2 m/s 760 mmHg 88%
    04:00 +11°C° 0 mm 3 m/s 760 mmHg 89%
    05:00 +11°C° 0 mm 3 m/s 760 mmHg 90%
    06:00 +12°C° 0 mm 3 m/s 760 mmHg 91%
    07:00 +13°C° 0 mm 3 m/s 760 mmHg 85%
    08:00 +15°C° 0 mm 4 m/s 760 mmHg 79%
    09:00 +18°C° 0 mm 4 m/s 760 mmHg 72%
    10:00 +17°C° 0 mm 5 m/s 760 mmHg 69%
    11:00 +19°C° 0 mm 6 m/s 759 mmHg 65%
    12:00 +20°C° 0 mm 7 m/s 759 mmHg 62%
    13:00 +18°C° 0 mm 7 m/s 759 mmHg 62%
    14:00 +18°C° 0 mm 7 m/s 759 mmHg 62%
    15:00 +18°C° 0 mm 7 m/s 758 mmHg 62%
    16:00 +17°C° 0 mm 7 m/s 758 mmHg 65%
    17:00 +17°C° 0 mm 7 m/s 758 mmHg 68%
    18:00 +16°C° 0 mm 6 m/s 757 mmHg 72%
    19:00 +15°C° 0.1 mm 7 m/s 757 mmHg 73%
    20:00 +15°C° 0.1 mm 7 m/s 757 mmHg 74%
    21:00 +15°C° 0.1 mm 7 m/s 757 mmHg 75%
    22:00 +14°C° 0.3 mm 7 m/s 757 mmHg 79%
    23:00 +14°C° 0.3 mm 7 m/s 756 mmHg 83%

    Demain, 22 Août, Jeudi

    Heure Température Précipitation Vent Pression Humidité
    00:00 +14°C° 0.3 mm 7 m/s 756 mmHg 86%
    01:00 +14°C° 0.5 mm 6 m/s 756 mmHg 88%
    02:00 +14°C° 0.5 mm 5 m/s 756 mmHg 89%
    03:00 +14°C° 0.5 mm 4 m/s 756 mmHg 90%
    04:00 +14°C° 0.2 mm 4 m/s 756 mmHg 89%
    05:00 +14°C° 0.2 mm 4 m/s 756 mmHg 88%
    06:00 +14°C° 0.2 mm 3 m/s 756 mmHg 87%
    07:00 +15°C° 0 mm 4 m/s 756 mmHg 82%
    08:00 +15°C° 0 mm 5 m/s 757 mmHg 77%
    09:00 +16°C° 0 mm 6 m/s 757 mmHg 72%
    10:00 +17°C° 0 mm 6 m/s 757 mmHg 69%
    11:00 +17°C° 0 mm 7 m/s 757 mmHg 65%
    12:00 +18°C° 0 mm 7 m/s 757 mmHg 62%
    13:00 +18°C° 0 mm 7 m/s 757 mmHg 64%
    14:00 +18°C° 0 mm 7 m/s 757 mmHg 66%
    15:00 +18°C° 0 mm 8 m/s 757 mmHg 68%
    16:00 +18°C° 0 mm 7 m/s 757 mmHg 71%
    17:00 +18°C° 0 mm 7 m/s 757 mmHg 73%
    18:00 +17°C° 0 mm 7 m/s 756 mmHg 76%
    19:00 +17°C° 0 mm 7 m/s 757 mmHg 77%
    20:00 +17°C° 0 mm 7 m/s 757 mmHg 79%
    21:00 +17°C° 0 mm 8 m/s 757 mmHg 80%
    22:00 +17°C° 0 mm 7 m/s 757 mmHg 81%
    23:00 +17°C° 0 mm 7 m/s 757 mmHg 82%

    Après-demain, 23 Août, Vendredi

    Heure Température Précipitation Vent Pression Humidité
    00:00 +17°C° 0 mm 6 m/s 757 mmHg 83%
    01:00 +17°C° 0 mm 6 m/s 757 mmHg 83%
    02:00 +17°C° 0 mm 6 m/s 757 mmHg 84%
    03:00 +17°C° 0 mm 6 m/s 757 mmHg 84%
    04:00 +16°C° 0 mm 6 m/s 758 mmHg 84%
    05:00 +16°C° 0 mm 6 m/s 758 mmHg 83%
    06:00 +16°C° 0 mm 5 m/s 758 mmHg 82%
    07:00 +17°C° 0 mm 6 m/s 758 mmHg 79%
    08:00 +19°C° 0 mm 6 m/s 758 mmHg 76%
    09:00 +19°C° 0 mm 6 m/s 759 mmHg 74%
    10:00 +20°C° 0 mm 6 m/s 759 mmHg 71%
    11:00 +21°C° 0 mm 6 m/s 759 mmHg 68%
    12:00 +22°C° 0 mm 6 m/s 759 mmHg 65%
    13:00 +22°C° 0 mm 5 m/s 759 mmHg 65%
    14:00 +22°C° 0 mm 5 m/s 759 mmHg 66%
    15:00 +23°C° 0 mm 5 m/s 759 mmHg 66%
    16:00 +22°C° 0 mm 4 m/s 759 mmHg 69%
    17:00 +21°C° 0 mm 4 m/s 759 mmHg 73%
    18:00 +20°C° 0 mm 4 m/s 759 mmHg 76%
    19:00 +19°C° 0 mm 3 m/s 759 mmHg 79%
    20:00 +18°C° 0 mm 2 m/s 759 mmHg 82%
    21:00 +17°C° 0 mm 2 m/s 759 mmHg 85%
    22:00 +17°C° 0 mm 2 m/s 759 mmHg 86%
    23:00 +16°C° 0 mm 1 m/s 759 mmHg 87%

    24 Août, Samedi

    Heure Température Précipitation Vent Pression Humidité
    00:00 +16°C° 0 mm 1 m/s 759 mmHg 88%
    01:00 +16°C° 0 mm 1 m/s 759 mmHg 89%
    02:00 +16°C° 0 mm 1 m/s 759 mmHg 90%
    03:00 +16°C° 0 mm 1 m/s 758 mmHg 91%
    04:00 +16°C° 0 mm 2 m/s 758 mmHg 91%
    05:00 +16°C° 0 mm 2 m/s 758 mmHg 91%
    06:00 +16°C° 0 mm 2 m/s 758 mmHg 91%
    07:00 +17°C° 0 mm 2 m/s 758 mmHg 86%
    08:00 +19°C° 0 mm 3 m/s 758 mmHg 80%
    09:00 +20°C° 0 mm 3 m/s 758 mmHg 75%
    10:00 +21°C° 0 mm 3 m/s 758 mmHg 72%
    11:00 +22°C° 0 mm 4 m/s 758 mmHg 69%
    12:00 +23°C° 0 mm 5 m/s 758 mmHg 65%
    13:00 +23°C° 0 mm 5 m/s 757 mmHg 64%
    14:00 +25°C° 0 mm 5 m/s 757 mmHg 62%
    15:00 +25°C° 0 mm 5 m/s 757 mmHg 60%
    16:00 +23°C° 0 mm 5 m/s 757 mmHg 62%
    17:00 +22°C° 0 mm 4 m/s 756 mmHg 64%
    18:00 +22°C° 0 mm 4 m/s 756 mmHg 66%
    19:00 +21°C° 0 mm 4 m/s 756 mmHg 67%
    20:00 +19°C° 0 mm 3 m/s 756 mmHg 68%
    21:00 +18°C° 0 mm 3 m/s 757 mmHg 69%
    22:00 +18°C° 0 mm 3 m/s 756 mmHg 72%
    23:00 +18°C° 0 mm 3 m/s 756 mmHg 75%

    25 Août, Dimanche

    Heure Température Précipitation Vent Pression Humidité
    00:00 +17°C° 0 mm 3 m/s 756 mmHg 77%
    01:00 +17°C° 0 mm 3 m/s 756 mmHg 79%
    02:00 +17°C° 0 mm 2 m/s 756 mmHg 81%
    03:00 +17°C° 0 mm 2 m/s 755 mmHg 83%
    04:00 +17°C° 0 mm 2 m/s 755 mmHg 82%
    05:00 +17°C° 0 mm 2 m/s 755 mmHg 82%
    06:00 +17°C° 0 mm 2 m/s 755 mmHg 82%
    07:00 +18°C° 0 mm 2 m/s 755 mmHg 79%
    08:00 +19°C° 0 mm 3 m/s 755 mmHg 76%
    09:00 +20°C° 0 mm 3 m/s 755 mmHg 72%
    10:00 +21°C° 0 mm 3 m/s 755 mmHg 70%
    11:00 +22°C° 0 mm 4 m/s 754 mmHg 69%
    12:00 +23°C° 0 mm 4 m/s 754 mmHg 67%
    13:00 +23°C° 0 mm 5 m/s 754 mmHg 65%
    14:00 +25°C° 0 mm 5 m/s 753 mmHg 63%
    15:00 +26°C° 0 mm 6 m/s 753 mmHg 61%
    16:00 +25°C° 0 mm 5 m/s 753 mmHg 65%
    17:00 +23°C° 0 mm 5 m/s 752 mmHg 69%
    18:00 +22°C° 0 mm 5 m/s 752 mmHg 73%
    19:00 +21°C° 0.3 mm 4 m/s 752 mmHg 77%
    20:00 +20°C° 0.3 mm 4 m/s 751 mmHg 80%
    21:00 +19°C° 0.3 mm 3 m/s 751 mmHg 84%
    22:00 +18°C° 0.2 mm 4 m/s 751 mmHg 85%
    23:00 +18°C° 0.2 mm 4 m/s 751 mmHg 86%

    26 Août, Lundi

    Heure Température Précipitation Vent Pression Humidité
    00:00 +17°C° 0.2 mm 4 m/s 750 mmHg 87%
    01:00 +17°C° 0 mm 4 m/s 750 mmHg 88%
    02:00 +17°C° 0 mm 4 m/s 750 mmHg 88%
    03:00 +15°C° 0 mm 4 m/s 749 mmHg 88%
    04:00 +15°C° 0 mm 5 m/s 749 mmHg 87%
    05:00 +15°C° 0 mm 6 m/s 750 mmHg 86%
    06:00 +15°C° 0 mm 6 m/s 750 mmHg 85%
    07:00 +15°C° 0.1 mm 6 m/s 750 mmHg 84%
    08:00 +15°C° 0.1 mm 6 m/s 750 mmHg 83%
    09:00 +14°C° 0.1 mm 5 m/s 750 mmHg 82%
    10:00 +15°C° 0 mm 6 m/s 750 mmHg 81%
    11:00 +16°C° 0 mm 6 m/s 751 mmHg 79%
    12:00 +17°C° 0 mm 6 m/s 751 mmHg 78%
    13:00 +17°C° 0 mm 7 m/s 751 mmHg 73%
    14:00 +17°C° 0 mm 7 m/s 752 mmHg 68%
    15:00 +17°C° 0 mm 8 m/s 752 mmHg 63%
    16:00 +16°C° 0 mm 7 m/s 753 mmHg 65%
    17:00 +15°C° 0 mm 7 m/s 753 mmHg 67%
    18:00 +14°C° 0 mm 6 m/s 754 mmHg 69%
    19:00 +14°C° 0 mm 6 m/s 755 mmHg 70%
    20:00 +13°C° 0 mm 5 m/s 755 mmHg 72%
    21:00 +12°C° 0 mm 5 m/s 756 mmHg 73%
    22:00 +12°C° 0 mm 4 m/s 756 mmHg 75%
    23:00 +12°C° 0 mm 4 m/s 757 mmHg 77%
    Voir plus